Regional Weather Roundup
Issued by NWS

Home | Current Version | Previous Version | Text Only | Print | Product List | Glossary On
Versions: 1 2 3 4 5 6 7 8 9 10 11 12 13 14 15 16 17 18 19 20 21 22 23 24 25 26 27 28 29 30 31 32 33 34 35 36 37 38 39 40 41 42 43 44 45 46 47 48 49 50
000
ASUS43 KLMK 211410
RWRKY
KENTUCKY REGIONAL WEATHER ROUNDUP
NATIONAL WEATHER SERVICE LOUISVILLE KY
1000 AM EDT TUE OCT 21 2014

NOTE "FAIR" INDICATES FEW OR NO CLOUDS BELOW 12,000 FEET
WITH NO SIGNIFICANT WEATHER AND/OR OBSTRUCTIONS TO VISIBILITY.

KYZ001>023-026-027-061>063-070>075-211500-
WESTERN AND SOUTH CENTRAL KENTUCKY

CITY           SKY/WX    TMP DP  RH WIND       PRES   REMARKS
PADUCAH        SUNNY     56  50  80 CALM      30.08R
HENDERSON      SUNNY    N/A N/A N/A CALM      30.08R
OWENSBORO      SUNNY     54  48  80 NE6       30.08R
HOPKINSVILLE   SUNNY     57  53  86 NW7       30.07R
BOWLING GREEN  MOSUNNY   57  47  69 NW6       30.07R
GLASGOW        CLOUDY    55  49  78 N3        30.06R
$$

KYZ024-025-028>034-038-045-046-053-211500-
NORTH CENTRAL KENTUCKY

CITY           SKY/WX    TMP DP  RH WIND       PRES   REMARKS
LOUISVILLE/SDF PTSUNNY   55  48  77 VRB7      30.06R
LOUISVILLE/LOU CLOUDY    53  48  83 N7        30.06R
FORT KNOX      CLOUDY    51  47  88 NW6       30.05R
$$

KYZ035>037-039>044-047>052-055>060-089>105-211500-
NORTHEAST KENTUCKY

CITY           SKY/WX    TMP DP  RH WIND       PRES   REMARKS
LEXINGTON      CLOUDY    53  46  77 NW8       30.03R
COVINGTON      CLOUDY    51  44  77 NW9       30.03R
FRANKFORT      CLOUDY    51  46  83 NW8       30.04R
$$

KYZ054-064>069-076>088-106>120-211500-
SOUTHEAST KENTUCKY

CITY           SKY/WX    TMP DP  RH WIND       PRES   REMARKS
JACKSON        CLOUDY    51  48  89 W7        30.00R FOG
LONDON         SUNNY     53  48  83 NW6       30.03R
SOMERSET       SUNNY     50  50 100 CALM      30.05S
MIDDLESBORO    MOSUNNY   52  49  90 CALM      30.02S
MONTICELLO     SUNNY     56  51  83 NW7       30.06R
$$




USA.gov is the U.S. government's official web portal to all federal, state and local government web resources and services.